STARLINK-34300, 64218

Orbit data source: Space-Track

STARLINK-34300, 64218 is a payload satellite owned by SpaceX/Seattle (US) in LEO that was launched on Sat, 31 May 2025 UTC via an FALCON 9 launch vehicle from the Air Force Western Test Range (AFWTR). Payload-class satellites include a variety of spacecraft equipped with specific instruments for various scientific and technological missions. These include communications satellites like Starlink; space stations such as the ISS; scientific satellites like the Hubble; Earth observation satellites from companies like Planet Labs, Umbra, and HawkEye 360; GPS; miniature CubeSats for education and research; and military/defense satellites.

Loading next visibility...
Identifier
64218, 2025-117R
Orbit
LEO
Country
Flag of USUS
Related business
Manufacturer
SpaceX/Seattle
Mission
Operational Commercial Communications
Bus & Motor
STARLINK V2MO, Unknown motor
Mass
575 kg wet, ~530 kg dry
Launch date (UTC)
2025-05-31 (1 year ago)
Launch vehicle
FALCON 9
Launch site
Air Force Western Test Range (AFWTR)
Object type
Payload
Rocket body
Debris
Shape & HBR
Box + 2 Pan, 17.7 m
Radar Cross Section
36.964 m², Large (>1 m²)

Expand to show TLE details & history
Last TLE update: 16 hours ago

TLE from 16 hours ago
0 STARLINK-34300
1 64218U 25117R   26191.96911571  .00011851  00000-0  41154-3 0  9999
2 64218  53.1567 186.7492 0002032  89.6629 270.4605 15.30204981 63404
Epoch: 2026-07-10T23:15Z
TLE epoch observation values (Epoch: 2026-07-10T23:15:31.597Z)
Latitude
0.00002°
Longitude
-91.0215°
Altitude
476.089 km
Speed
7.629 km/s
True Right ascension
12h 26m 59s
True Declination
0° 00' 00"
Sunlit
Object was in daylight at epoch
Visualization orbit readout
Latitude
Unknown
Longitude
Unknown
Altitude
Unknown
Speed
Unknown
Apparent Right ascension
Unknown
Apparent Declination
Unknown
Sunlit
N/A
Visualization observer readout
Local Sidereal Time
03:38:00
Azimuth
Unknown
Elevation
Unknown
Doppler factor
Unknown
Orbital elements
Apogee altitude
476.85 km
Perigee altitude
474.065 km
Semi-major axis
6,853.594 km
Eccentricity
0.0002
Inclination
53.1567°
RAAN
186.7492°
Arg. of periapsis
89.6629°
True anomaly
270.43722°
Mean anomaly
270.4605°
Eccentric anomaly
270.44886°
Mean motion
3.8253 °/min
Orbital period
94.11 mins
BSTAR
0.00041154
Loading maneuver chart data...
Computing Atmospheric mass density...
Loading historical data...
Loading historical data...
Loading historical data...
Loading historical data...
Loading historical data...
Loading historical data...
Loading historical data...

Documentation

Showing up to 5 results
|